TRA6215 EHEH-GCTS

Flight info

Callsign TRA6215
Flight time N/A
Altitude 35000
Route WOODY N872 CIV DCT KOVIN DCT NIDUV DCT KIHVI UN872 ERIGA DCT FUJTI DCT ATLEN DCT ABUPI DCT CANAR DCT XAMAX/N0457F370 DCT BEXAL UN866 KONBA
Aircraft A21N/M-SDE3FGHIRWY/LB1

Departure

Time 2026-05-07 19:27
Airport Eindhoven Airport (EHEH)

Arrival

Time N/A
Airport Tenerife Sur Airport (GCTS)
Time Latitude Longitude Altitude Speed Heading
2026-05-07 18:48 51.45922 5.39141 69 ft 0 kts 125°
2026-05-07 19:13 51.45924 5.39137 75 ft 3 kts 125°
2026-05-07 19:14 51.45939 5.39102 66 ft 3 kts 125°
2026-05-07 19:14 51.45951 5.39071 69 ft 4 kts 109°
2026-05-07 19:14 51.45954 5.39032 67 ft 4 kts 69°
2026-05-07 19:14 51.45939 5.38998 66 ft 4 kts 37°
2026-05-07 19:15 51.45919 5.38976 67 ft 1 kts 35°
2026-05-07 19:15 51.45918 5.38976 67 ft 0 kts 35°
2026-05-07 19:18 51.45919 5.38976 67 ft 0 kts 35°
2026-05-07 19:19 51.45926 5.38984 65 ft 3 kts 34°
2026-05-07 19:19 51.45964 5.38985 73 ft 8 kts 336°
2026-05-07 19:19 51.46007 5.38902 72 ft 10 kts 305°
2026-05-07 19:19 51.46050 5.38804 64 ft 11 kts 305°
2026-05-07 19:20 51.46096 5.38700 69 ft 12 kts 305°
2026-05-07 19:20 51.46145 5.38590 69 ft 12 kts 306°
2026-05-07 19:20 51.46166 5.38468 68 ft 12 kts 234°
2026-05-07 19:20 51.46097 5.38386 67 ft 13 kts 214°
2026-05-07 19:21 51.46021 5.38302 69 ft 15 kts 216°
2026-05-07 19:21 51.45922 5.38190 73 ft 20 kts 214°
2026-05-07 19:21 51.45794 5.38047 68 ft 25 kts 214°
2026-05-07 19:21 51.45645 5.37881 64 ft 27 kts 215°
2026-05-07 19:22 51.45491 5.37709 68 ft 27 kts 215°
2026-05-07 19:22 51.45334 5.37531 67 ft 28 kts 215°
2026-05-07 19:22 51.45171 5.37347 64 ft 29 kts 215°
2026-05-07 19:22 51.45009 5.37167 72 ft 28 kts 214°
2026-05-07 19:23 51.44856 5.36997 69 ft 26 kts 215°
2026-05-07 19:23 51.44703 5.36825 70 ft 27 kts 215°
2026-05-07 19:23 51.44545 5.36647 71 ft 28 kts 214°
2026-05-07 19:23 51.44383 5.36467 72 ft 28 kts 215°
2026-05-07 19:24 51.44230 5.36295 73 ft 26 kts 215°
2026-05-07 19:24 51.44084 5.36132 71 ft 25 kts 215°
2026-05-07 19:24 51.44007 5.36062 71 ft 8 kts 177°
2026-05-07 19:24 51.43969 5.36115 69 ft 7 kts 126°
2026-05-07 19:25 51.43944 5.36169 64 ft 5 kts 126°
2026-05-07 19:25 51.43924 5.36217 65 ft 5 kts 116°
2026-05-07 19:25 51.43940 5.36252 65 ft 4 kts 31°
2026-05-07 19:25 51.43968 5.36282 64 ft 8 kts 34°
2026-05-07 19:26 51.44160 5.36496 65 ft 69 kts 35°
2026-05-07 19:26 51.44734 5.37138 68 ft 129 kts 35°
2026-05-07 19:26 51.45605 5.38117 91 ft 174 kts 35°
2026-05-07 19:26 51.46610 5.39263 597 ft 176 kts 35°
2026-05-07 19:27 51.47609 5.40391 1312 ft 173 kts 35°
2026-05-07 19:27 51.48569 5.41465 1831 ft 173 kts 35°
2026-05-07 19:27 51.49580 5.42591 2358 ft 172 kts 35°
2026-05-07 19:27 51.50565 5.43671 2836 ft 171 kts 31°
2026-05-07 19:28 51.51713 5.44113 3268 ft 175 kts 357°
2026-05-07 19:28 51.52890 5.43426 3467 ft 192 kts 323°
2026-05-07 19:28 51.53674 5.41612 3613 ft 209 kts 286°
2026-05-07 19:28 51.53633 5.39217 3746 ft 226 kts 256°
2026-05-07 19:29 51.53221 5.36708 4079 ft 236 kts 255°
2026-05-07 19:29 51.52786 5.34157 4661 ft 237 kts 254°
2026-05-07 19:29 51.52345 5.31596 5228 ft 239 kts 254°
2026-05-07 19:29 51.51903 5.29017 5808 ft 240 kts 253°
2026-05-07 19:30 51.51470 5.26470 6398 ft 240 kts 253°
2026-05-07 19:30 51.51036 5.23904 6949 ft 240 kts 253°
2026-05-07 19:30 51.50602 5.21296 7500 ft 241 kts 256°
2026-05-07 19:30 51.50471 5.18609 8005 ft 246 kts 273°
2026-05-07 19:31 51.50836 5.15799 8190 ft 269 kts 284°
2026-05-07 19:31 51.51351 5.12849 8656 ft 278 kts 284°
2026-05-07 19:31 51.51873 5.09837 9314 ft 281 kts 284°
2026-05-07 19:31 51.52395 5.06802 10013 ft 283 kts 284°
2026-05-07 19:32 51.52924 5.03707 10434 ft 296 kts 284°
2026-05-07 19:32 51.53484 5.00401 10556 ft 318 kts 284°
2026-05-07 19:32 51.54082 4.96863 10728 ft 337 kts 284°
2026-05-07 19:32 51.54702 4.93190 11216 ft 344 kts 284°
2026-05-07 19:33 51.55335 4.89459 11827 ft 348 kts 284°
2026-05-07 19:33 51.55741 4.85620 12449 ft 350 kts 271°
2026-05-07 19:33 51.55560 4.81697 13058 ft 353 kts 258°
2026-05-07 19:33 51.55031 4.77822 13683 ft 356 kts 257°
2026-05-07 19:34 51.54497 4.73939 14257 ft 359 kts 257°
2026-05-07 19:34 51.53956 4.70005 14814 ft 362 kts 257°
2026-05-07 19:34 51.53412 4.66043 15387 ft 365 kts 257°
2026-05-07 19:34 51.52864 4.62042 15945 ft 368 kts 257°
2026-05-07 19:35 51.52312 4.58012 16507 ft 371 kts 257°
2026-05-07 19:35 51.51755 4.53946 17065 ft 374 kts 257°
2026-05-07 19:35 51.51021 4.49938 17595 ft 376 kts 247°
2026-05-07 19:35 51.49754 4.46253 18121 ft 379 kts 234°
2026-05-07 19:36 51.47985 4.43101 18604 ft 383 kts 221°
2026-05-07 19:36 51.45798 4.40658 19063 ft 386 kts 208°
2026-05-07 19:36 51.43374 4.38792 19529 ft 388 kts 206°
2026-05-07 19:36 51.40925 4.36939 19997 ft 390 kts 206°
2026-05-07 19:37 51.38469 4.35071 20468 ft 392 kts 206°
2026-05-07 19:37 51.36001 4.33196 20916 ft 394 kts 206°
2026-05-07 19:37 51.33520 4.31309 21348 ft 396 kts 207°
2026-05-07 19:37 51.31025 4.29410 21773 ft 398 kts 207°
2026-05-07 19:38 51.28569 4.27468 22179 ft 399 kts 212°
2026-05-07 19:38 51.26220 4.25002 22600 ft 400 kts 215°
2026-05-07 19:38 51.23936 4.22545 22991 ft 402 kts 215°
2026-05-07 19:38 51.21586 4.20008 23398 ft 404 kts 216°
2026-05-07 19:39 51.19253 4.17489 23766 ft 406 kts 216°
2026-05-07 19:39 51.16907 4.14959 24099 ft 408 kts 216°
2026-05-07 19:39 51.14584 4.12458 24430 ft 409 kts 216°
2026-05-07 19:39 51.12219 4.09919 24749 ft 411 kts 216°
2026-05-07 19:40 51.09840 4.07374 25076 ft 413 kts 215°
2026-05-07 19:40 51.07448 4.04819 25392 ft 415 kts 216°
2026-05-07 19:40 51.05054 4.02257 25698 ft 416 kts 216°
2026-05-07 19:40 51.02644 3.99678 26010 ft 418 kts 216°
2026-05-07 19:41 51.00225 3.97092 26320 ft 420 kts 216°
2026-05-07 19:41 50.97793 3.94506 26625 ft 422 kts 216°
2026-05-07 19:41 50.95352 3.91915 26927 ft 423 kts 216°
2026-05-07 19:41 50.92899 3.89314 27225 ft 425 kts 216°
2026-05-07 19:42 50.90436 3.86699 27516 ft 427 kts 216°
2026-05-07 19:42 50.87968 3.84077 27801 ft 428 kts 216°
2026-05-07 19:42 50.85485 3.81448 28071 ft 430 kts 216°
2026-05-07 19:42 50.82990 3.78812 28350 ft 432 kts 216°
2026-05-07 19:43 50.80485 3.76170 28604 ft 434 kts 216°
2026-05-07 19:43 50.77971 3.73524 28854 ft 436 kts 216°
2026-05-07 19:43 50.75446 3.70867 29115 ft 437 kts 216°
2026-05-07 19:43 50.72910 3.68196 29389 ft 439 kts 216°
2026-05-07 19:44 50.70370 3.65524 29683 ft 439 kts 216°
2026-05-07 19:44 50.67827 3.62856 30072 ft 438 kts 216°
2026-05-07 19:44 50.65289 3.60202 30392 ft 437 kts 216°
2026-05-07 19:44 50.62753 3.57558 30710 ft 436 kts 216°
2026-05-07 19:45 50.60226 3.54926 31019 ft 436 kts 216°
2026-05-07 19:45 50.57716 3.52266 31305 ft 434 kts 219°
2026-05-07 19:45 50.55542 3.49009 31584 ft 432 kts 229°
2026-05-07 19:45 50.53532 3.45501 31869 ft 431 kts 229°
2026-05-07 19:46 50.51528 3.41995 32166 ft 431 kts 229°
2026-05-07 19:46 50.49532 3.38500 32482 ft 430 kts 229°
2026-05-07 19:46 50.47537 3.35008 32789 ft 429 kts 229°
2026-05-07 19:46 50.45548 3.31528 33089 ft 428 kts 229°
2026-05-07 19:47 50.43554 3.28051 33388 ft 428 kts 229°
2026-05-07 19:47 50.41564 3.24589 33670 ft 427 kts 229°
2026-05-07 19:47 50.39573 3.21135 33972 ft 426 kts 229°
2026-05-07 19:47 50.37589 3.17699 34221 ft 426 kts 229°
2026-05-07 19:48 50.35599 3.14259 34436 ft 426 kts 229°
2026-05-07 19:48 50.33611 3.10828 34634 ft 426 kts 229°
2026-05-07 19:48 50.32295 3.08556 34768 ft 426 kts 229°
2026-05-07 19:48 50.30306 3.05124 34965 ft 426 kts 229°
2026-05-07 19:49 50.26329 2.98268 35071 ft 425 kts 229°
2026-05-07 19:49 50.22356 2.91439 35065 ft 424 kts 229°
2026-05-07 19:50 50.18377 2.84636 35064 ft 424 kts 229°
2026-05-07 19:50 50.14398 2.77840 35058 ft 424 kts 229°
2026-05-07 19:51 50.10419 2.71052 35062 ft 424 kts 229°
2026-05-07 19:51 50.06461 2.64324 35061 ft 424 kts 228°
2026-05-07 19:52 50.02447 2.57519 35062 ft 424 kts 228°
2026-05-07 19:52 49.98482 2.50810 35063 ft 424 kts 228°
2026-05-07 19:53 49.94488 2.44075 35065 ft 424 kts 228°
2026-05-07 19:53 49.90803 2.37885 35067 ft 424 kts 228°
2026-05-07 19:54 49.86806 2.31174 35075 ft 424 kts 228°
2026-05-07 19:54 49.82799 2.24472 35080 ft 424 kts 228°
2026-05-07 19:55 49.79059 2.17464 35074 ft 422 kts 237°
2026-05-07 19:55 49.75899 2.09794 35063 ft 423 kts 238°
2026-05-07 19:56 49.72752 2.02105 35052 ft 423 kts 238°
2026-05-07 19:56 49.69605 1.94408 35056 ft 424 kts 238°
2026-05-07 19:57 49.66458 1.86719 35064 ft 424 kts 238°
2026-05-07 19:57 49.63306 1.79024 35073 ft 424 kts 238°
2026-05-07 19:58 49.60158 1.71320 35072 ft 425 kts 238°
2026-05-07 19:58 49.57010 1.63614 35068 ft 425 kts 238°
2026-05-07 19:59 49.53862 1.55921 35063 ft 425 kts 238°
2026-05-07 19:59 49.50710 1.48226 35050 ft 425 kts 238°
2026-05-07 20:00 49.47566 1.40542 35053 ft 424 kts 238°
2026-05-07 20:00 49.44422 1.32863 35066 ft 424 kts 238°
2026-05-07 20:01 49.41300 1.25183 35063 ft 424 kts 238°
2026-05-07 20:01 49.38179 1.17499 35058 ft 424 kts 238°
2026-05-07 20:02 49.35054 1.09819 35057 ft 424 kts 238°
2026-05-07 20:02 49.31928 1.02148 35057 ft 424 kts 238°
2026-05-07 20:03 49.28798 0.94483 35043 ft 424 kts 238°
2026-05-07 20:03 49.25662 0.86828 35038 ft 424 kts 238°
2026-05-07 20:04 49.22516 0.79193 35042 ft 424 kts 234°
2026-05-07 20:04 49.20562 0.75844 35050 ft 423 kts 223°
2026-05-07 20:04 49.18412 0.72776 35049 ft 423 kts 223°
2026-05-07 20:05 49.14103 0.66666 35045 ft 422 kts 223°
2026-05-07 20:05 49.09819 0.60621 35043 ft 422 kts 223°
2026-05-07 20:06 49.05502 0.54552 35047 ft 422 kts 223°
2026-05-07 20:06 49.01187 0.48495 35048 ft 421 kts 223°
2026-05-07 20:07 48.96875 0.42456 35058 ft 421 kts 223°
2026-05-07 20:07 48.92566 0.36432 35052 ft 420 kts 223°
2026-05-07 20:08 48.88261 0.30415 35046 ft 420 kts 223°
2026-05-07 20:08 48.83948 0.24427 35044 ft 420 kts 223°
2026-05-07 20:09 48.79638 0.18443 35039 ft 420 kts 223°
2026-05-07 20:10 48.74606 0.11453 35039 ft 420 kts 223°
2026-05-07 20:10 48.73914 0.10496 35039 ft 420 kts 222°
2026-05-07 20:11 48.69580 0.04578 35037 ft 420 kts 223°
2026-05-07 20:11 48.65265 -0.01382 35048 ft 420 kts 223°
2026-05-07 20:12 48.60954 -0.07333 35032 ft 420 kts 223°
2026-05-07 20:12 48.56624 -0.13276 35032 ft 420 kts 222°
2026-05-07 20:13 48.52290 -0.19196 35029 ft 420 kts 222°
2026-05-07 20:13 48.47951 -0.25103 35027 ft 420 kts 222°
2026-05-07 20:14 48.43607 -0.31010 35023 ft 421 kts 222°
2026-05-07 20:14 48.39261 -0.36898 35026 ft 420 kts 222°
2026-05-07 20:15 48.34913 -0.42777 35029 ft 420 kts 222°
2026-05-07 20:15 48.30567 -0.48643 35026 ft 420 kts 222°
2026-05-07 20:16 48.26220 -0.54499 35020 ft 420 kts 222°
2026-05-07 20:16 48.21901 -0.60313 35007 ft 420 kts 222°
2026-05-07 20:17 48.17552 -0.66149 35012 ft 419 kts 222°
2026-05-07 20:17 48.13204 -0.71967 35010 ft 419 kts 222°
2026-05-07 20:18 48.08856 -0.77772 35010 ft 419 kts 222°
2026-05-07 20:18 48.04504 -0.83570 35010 ft 419 kts 222°
2026-05-07 20:19 48.00149 -0.89347 35009 ft 419 kts 222°
2026-05-07 20:19 47.95791 -0.95120 35014 ft 419 kts 222°
2026-05-07 20:20 47.91426 -1.00895 35014 ft 419 kts 222°
2026-05-07 20:20 47.87060 -1.06656 35010 ft 419 kts 222°
2026-05-07 20:21 47.82687 -1.12406 35010 ft 420 kts 221°
2026-05-07 20:21 47.78304 -1.18147 34997 ft 420 kts 221°
2026-05-07 20:22 47.73929 -1.23892 35000 ft 420 kts 221°
2026-05-07 20:22 47.69544 -1.29620 35002 ft 420 kts 221°
2026-05-07 20:23 47.65177 -1.35304 34997 ft 421 kts 221°
2026-05-07 20:23 47.60749 -1.41068 34994 ft 421 kts 221°
2026-05-07 20:24 47.56368 -1.46754 34992 ft 421 kts 221°
2026-05-07 20:24 47.51955 -1.52466 34993 ft 422 kts 221°
2026-05-07 20:25 47.47537 -1.58175 34996 ft 422 kts 221°
2026-05-07 20:25 47.43116 -1.63867 34997 ft 422 kts 221°
2026-05-07 20:26 47.38691 -1.69553 35005 ft 422 kts 221°
2026-05-07 20:26 47.34257 -1.75240 34991 ft 423 kts 222°
2026-05-07 20:27 47.29816 -1.80923 34992 ft 423 kts 221°
2026-05-07 20:27 47.25368 -1.86603 34995 ft 423 kts 221°
2026-05-07 20:28 47.20917 -1.92285 34996 ft 424 kts 221°
2026-05-07 20:28 47.16461 -1.97950 35000 ft 424 kts 221°
2026-05-07 20:29 47.11996 -2.03611 34994 ft 424 kts 221°
2026-05-07 20:29 47.07529 -2.09252 34990 ft 424 kts 222°
2026-05-07 20:30 47.03045 -2.14895 34985 ft 425 kts 222°
2026-05-07 20:30 46.98555 -2.20547 34986 ft 426 kts 222°
2026-05-07 20:31 46.94062 -2.26203 34984 ft 426 kts 222°
2026-05-07 20:31 46.89557 -2.31848 34988 ft 427 kts 222°
2026-05-07 20:32 46.84919 -2.37260 34989 ft 428 kts 213°
2026-05-07 20:32 46.79805 -2.41734 34995 ft 429 kts 212°
2026-05-07 20:33 46.74688 -2.46211 34995 ft 429 kts 213°
2026-05-07 20:33 46.69596 -2.50670 34990 ft 430 kts 213°
2026-05-07 20:34 46.64456 -2.55161 34986 ft 431 kts 213°
2026-05-07 20:34 46.59304 -2.59652 34990 ft 432 kts 213°
2026-05-07 20:35 46.54142 -2.64135 34991 ft 432 kts 213°
2026-05-07 20:35 46.48981 -2.68609 34987 ft 432 kts 213°
2026-05-07 20:36 46.43812 -2.73084 34991 ft 433 kts 213°
2026-05-07 20:36 46.38637 -2.77545 34994 ft 433 kts 213°
2026-05-07 20:37 46.34333 -2.81247 34991 ft 433 kts 213°
2026-05-07 20:37 46.29144 -2.85699 34981 ft 434 kts 213°
2026-05-07 20:38 46.24263 -2.90746 34982 ft 431 kts 223°
2026-05-07 20:38 46.19692 -2.96355 34981 ft 431 kts 223°
2026-05-07 20:39 46.15103 -3.01942 34982 ft 432 kts 223°
2026-05-07 20:39 46.10513 -3.07530 34972 ft 432 kts 223°
2026-05-07 20:40 46.05916 -3.13113 34981 ft 432 kts 223°
2026-05-07 20:40 46.01315 -3.18690 34977 ft 432 kts 223°
2026-05-07 20:41 45.96745 -3.24223 34982 ft 432 kts 223°
2026-05-07 20:41 45.92135 -3.29772 34978 ft 432 kts 223°
2026-05-07 20:42 45.87519 -3.35312 34977 ft 433 kts 223°
2026-05-07 20:42 45.82904 -3.40853 34980 ft 433 kts 223°
2026-05-07 20:43 45.78280 -3.46384 34978 ft 433 kts 223°
2026-05-07 20:43 45.73664 -3.51910 34978 ft 433 kts 223°
2026-05-07 20:44 45.69048 -3.57434 34970 ft 432 kts 223°
2026-05-07 20:44 45.64431 -3.62934 34973 ft 432 kts 223°
2026-05-07 20:45 45.59814 -3.68415 34975 ft 432 kts 223°
2026-05-07 20:45 45.55187 -3.73876 34968 ft 431 kts 223°
2026-05-07 20:46 45.50564 -3.79337 34963 ft 431 kts 223°
2026-05-07 20:46 45.45947 -3.84791 34960 ft 431 kts 223°
2026-05-07 20:47 45.41355 -3.90200 34960 ft 431 kts 224°
2026-05-07 20:47 45.36733 -3.95630 34962 ft 431 kts 223°
2026-05-07 20:48 45.32105 -4.01047 34960 ft 431 kts 224°
2026-05-07 20:48 45.27480 -4.06454 34945 ft 430 kts 224°
2026-05-07 20:49 45.22860 -4.11853 34947 ft 430 kts 224°
2026-05-07 20:49 45.18237 -4.17239 34949 ft 430 kts 224°
2026-05-07 20:50 45.13609 -4.22609 34947 ft 430 kts 223°
2026-05-07 20:50 45.08976 -4.27971 34937 ft 430 kts 224°
2026-05-07 20:51 45.04343 -4.33329 34940 ft 430 kts 224°
2026-05-07 20:51 44.99706 -4.38682 34942 ft 430 kts 224°
2026-05-07 20:52 44.95066 -4.44026 34941 ft 430 kts 223°
2026-05-07 20:52 44.90422 -4.49358 34929 ft 430 kts 224°
2026-05-07 20:53 44.85781 -4.54690 34930 ft 430 kts 224°
2026-05-07 20:53 44.81164 -4.59974 34927 ft 430 kts 224°
2026-05-07 20:54 44.76517 -4.65280 34934 ft 430 kts 224°
2026-05-07 20:54 44.71866 -4.70574 34932 ft 430 kts 224°
2026-05-07 20:55 44.67208 -4.75856 34928 ft 430 kts 224°
2026-05-07 20:55 44.62561 -4.81145 34928 ft 430 kts 224°
2026-05-07 20:56 44.57910 -4.86414 34929 ft 430 kts 224°
2026-05-07 20:56 44.53252 -4.91667 34930 ft 430 kts 224°
2026-05-07 20:57 44.48400 -4.96609 34902 ft 434 kts 217°
2026-05-07 20:57 44.43279 -5.01078 34930 ft 433 kts 218°
2026-05-07 20:58 44.38172 -5.05547 34927 ft 432 kts 218°
2026-05-07 20:58 44.33073 -5.09997 34927 ft 432 kts 218°
2026-05-07 20:59 44.27977 -5.14430 34918 ft 431 kts 218°
2026-05-07 20:59 44.22884 -5.18843 34919 ft 431 kts 218°
2026-05-07 21:00 44.17790 -5.23251 34914 ft 431 kts 218°
2026-05-07 21:00 44.12703 -5.27654 34915 ft 430 kts 218°
2026-05-07 21:01 44.07618 -5.32048 34899 ft 430 kts 218°
2026-05-07 21:01 44.02567 -5.36393 34906 ft 429 kts 218°
2026-05-07 21:02 43.97493 -5.40748 34915 ft 428 kts 218°
2026-05-07 21:02 43.92428 -5.45097 34917 ft 428 kts 218°
2026-05-07 21:03 43.87370 -5.49427 34903 ft 427 kts 218°
2026-05-07 21:03 43.82313 -5.53747 34915 ft 426 kts 218°
2026-05-07 21:04 43.77266 -5.58041 34918 ft 426 kts 218°
2026-05-07 21:04 43.72225 -5.62332 34919 ft 425 kts 218°
2026-05-07 21:05 43.67188 -5.66609 34905 ft 425 kts 218°
2026-05-07 21:05 43.62155 -5.70868 34924 ft 423 kts 218°
2026-05-07 21:06 43.57141 -5.75102 34934 ft 422 kts 217°
2026-05-07 21:06 43.52150 -5.79314 34939 ft 420 kts 218°
2026-05-07 21:07 43.47173 -5.83514 34922 ft 419 kts 218°
2026-05-07 21:07 43.42207 -5.87682 34937 ft 417 kts 218°
2026-05-07 21:08 43.37257 -5.91832 34931 ft 416 kts 218°
2026-05-07 21:08 43.32317 -5.95970 34940 ft 415 kts 218°
2026-05-07 21:09 43.27379 -6.00090 34942 ft 415 kts 217°
2026-05-07 21:09 43.22452 -6.04196 34948 ft 414 kts 218°
2026-05-07 21:10 43.17539 -6.08298 34962 ft 413 kts 218°
2026-05-07 21:10 43.12628 -6.12390 34957 ft 412 kts 217°
2026-05-07 21:11 43.07725 -6.16454 34958 ft 412 kts 217°
2026-05-07 21:11 43.00368 -6.22535 34945 ft 412 kts 217°
2026-05-07 21:12 42.95472 -6.26581 34948 ft 411 kts 217°
2026-05-07 21:12 42.90575 -6.30614 34948 ft 411 kts 217°
2026-05-07 21:13 42.85709 -6.34605 34944 ft 411 kts 217°
2026-05-07 21:13 42.80812 -6.38623 34932 ft 411 kts 217°
2026-05-07 21:14 42.75912 -6.42636 34932 ft 411 kts 217°
2026-05-07 21:14 42.71007 -6.46646 34933 ft 411 kts 217°
2026-05-07 21:15 42.66111 -6.50640 34951 ft 410 kts 216°
2026-05-07 21:15 42.61231 -6.54618 34950 ft 409 kts 216°
2026-05-07 21:16 42.56361 -6.58585 34950 ft 408 kts 216°
2026-05-07 21:16 42.51490 -6.62538 34953 ft 408 kts 216°
2026-05-07 21:17 42.46619 -6.66475 34943 ft 408 kts 216°
2026-05-07 21:17 42.41752 -6.70418 34933 ft 408 kts 216°
2026-05-07 21:18 42.36891 -6.74354 34940 ft 407 kts 216°
2026-05-07 21:18 42.32033 -6.78271 34941 ft 406 kts 216°
2026-05-07 21:19 42.27215 -6.82144 34935 ft 406 kts 216°
2026-05-07 21:19 42.22363 -6.86042 34939 ft 405 kts 215°
2026-05-07 21:20 42.17524 -6.89910 34935 ft 404 kts 214°
2026-05-07 21:20 42.12701 -6.93764 34943 ft 403 kts 215°
2026-05-07 21:21 42.07888 -6.97616 34948 ft 402 kts 215°
2026-05-07 21:21 42.03077 -7.01447 34941 ft 401 kts 214°
2026-05-07 21:22 41.98270 -7.05264 34941 ft 401 kts 214°
2026-05-07 21:22 41.93469 -7.09083 34928 ft 401 kts 214°
2026-05-07 21:23 41.88674 -7.12880 34929 ft 400 kts 214°
2026-05-07 21:23 41.83879 -7.16672 34929 ft 400 kts 214°
2026-05-07 21:24 41.79090 -7.20457 34931 ft 400 kts 214°
2026-05-07 21:24 41.74292 -7.24206 34926 ft 400 kts 212°
2026-05-07 21:25 41.69309 -7.27552 34927 ft 401 kts 209°
2026-05-07 21:25 41.64238 -7.30658 34932 ft 401 kts 208°
2026-05-07 21:26 41.59184 -7.33803 34936 ft 400 kts 209°
2026-05-07 21:26 41.54199 -7.36990 34933 ft 400 kts 210°
2026-05-07 21:27 41.49184 -7.40207 34917 ft 400 kts 209°
2026-05-07 21:27 41.44982 -7.42892 34921 ft 400 kts 209°
2026-05-07 21:28 41.39143 -7.46607 34931 ft 400 kts 210°
2026-05-07 21:28 41.35150 -7.49726 34931 ft 397 kts 214°
2026-05-07 21:29 41.30417 -7.53540 34921 ft 397 kts 214°
2026-05-07 21:29 41.25684 -7.57346 34922 ft 398 kts 214°
2026-05-07 21:30 41.20977 -7.61119 34939 ft 398 kts 214°
2026-05-07 21:30 41.16233 -7.64914 34952 ft 398 kts 214°
2026-05-07 21:31 41.11489 -7.68704 34945 ft 398 kts 214°
2026-05-07 21:31 41.06751 -7.72478 34943 ft 397 kts 213°
2026-05-07 21:32 41.02015 -7.76240 34954 ft 397 kts 213°
2026-05-07 21:32 40.97279 -7.79985 34947 ft 396 kts 213°
2026-05-07 21:33 40.92543 -7.83724 34949 ft 396 kts 213°
2026-05-07 21:33 40.87821 -7.87455 34952 ft 396 kts 213°
2026-05-07 21:34 40.83094 -7.91185 34954 ft 395 kts 213°
2026-05-07 21:34 40.78376 -7.94898 34954 ft 395 kts 213°
2026-05-07 21:35 40.73657 -7.98601 34952 ft 394 kts 213°
2026-05-07 21:35 40.68948 -8.02289 34948 ft 394 kts 213°
2026-05-07 21:36 40.64229 -8.05978 34956 ft 394 kts 213°
2026-05-07 21:36 40.59518 -8.09666 34940 ft 394 kts 213°
2026-05-07 21:37 40.54813 -8.13344 34946 ft 393 kts 213°
2026-05-07 21:37 40.50101 -8.17008 34948 ft 393 kts 213°
2026-05-07 21:38 40.45397 -8.20666 34949 ft 393 kts 213°
2026-05-07 21:38 40.40693 -8.24320 34949 ft 393 kts 213°
2026-05-07 21:39 40.35988 -8.27968 34949 ft 393 kts 213°
2026-05-07 21:39 40.31282 -8.31610 34947 ft 393 kts 213°
2026-05-07 21:40 40.26574 -8.35244 34970 ft 393 kts 212°
2026-05-07 21:40 40.21867 -8.38876 34971 ft 392 kts 212°
2026-05-07 21:41 40.17172 -8.42492 34972 ft 391 kts 212°
2026-05-07 21:41 40.12481 -8.46102 34958 ft 391 kts 212°
2026-05-07 21:42 40.07789 -8.49698 34954 ft 391 kts 212°
2026-05-07 21:42 40.03131 -8.53269 34954 ft 391 kts 212°
2026-05-07 21:43 39.98447 -8.56859 34957 ft 391 kts 212°
2026-05-07 21:43 39.93756 -8.60440 34949 ft 391 kts 212°
2026-05-07 21:44 39.89066 -8.64013 34944 ft 390 kts 212°
2026-05-07 21:44 39.84383 -8.67580 34946 ft 390 kts 212°
2026-05-07 21:45 39.79703 -8.71138 34948 ft 389 kts 212°
2026-05-07 21:45 39.75027 -8.74691 34966 ft 389 kts 211°
2026-05-07 21:46 39.70344 -8.78240 35095 ft 392 kts 211°
2026-05-07 21:46 39.67980 -8.80030 35316 ft 392 kts 211°
2026-05-07 21:46 39.65627 -8.81809 35624 ft 391 kts 211°
2026-05-07 21:47 39.63284 -8.83577 35920 ft 389 kts 211°
2026-05-07 21:47 39.60951 -8.85339 36208 ft 387 kts 211°
2026-05-07 21:47 39.58632 -8.87092 36495 ft 385 kts 211°
2026-05-07 21:47 39.56315 -8.88839 36770 ft 384 kts 211°
2026-05-07 21:48 39.54011 -8.90571 36928 ft 383 kts 211°
2026-05-07 21:48 39.51708 -8.92303 36950 ft 382 kts 211°
2026-05-07 21:48 39.47124 -8.95748 36952 ft 381 kts 211°
2026-05-07 21:49 39.42544 -8.99188 36957 ft 380 kts 211°
2026-05-07 21:49 39.37970 -9.02620 36965 ft 380 kts 211°
2026-05-07 21:50 39.33394 -9.06049 36952 ft 380 kts 211°
2026-05-07 21:50 39.28822 -9.09466 36972 ft 380 kts 211°
2026-05-07 21:51 39.24241 -9.12883 36967 ft 380 kts 210°
2026-05-07 21:51 39.19662 -9.16291 36950 ft 380 kts 210°
2026-05-07 21:52 39.15076 -9.19706 36956 ft 380 kts 210°
2026-05-07 21:52 39.10494 -9.23116 36958 ft 380 kts 210°
2026-05-07 21:53 39.05907 -9.26520 36963 ft 381 kts 210°
2026-05-07 21:53 39.01315 -9.29912 36965 ft 381 kts 210°
2026-05-07 21:54 38.96714 -9.33312 36954 ft 380 kts 210°
2026-05-07 21:54 38.92137 -9.36697 36958 ft 381 kts 210°
2026-05-07 21:55 38.87566 -9.40068 36960 ft 381 kts 210°
2026-05-07 21:55 38.82953 -9.43465 36961 ft 381 kts 210°
2026-05-07 21:56 38.78354 -9.46836 36996 ft 380 kts 210°
2026-05-07 21:56 38.73757 -9.50210 36972 ft 381 kts 210°
2026-05-07 21:57 38.69164 -9.53582 36969 ft 380 kts 210°
2026-05-07 21:57 38.64568 -9.56940 36971 ft 380 kts 210°
2026-05-07 21:58 38.60004 -9.60263 36969 ft 380 kts 210°
2026-05-07 21:58 38.55373 -9.63637 36976 ft 380 kts 210°
2026-05-07 21:59 38.50814 -9.66964 36975 ft 380 kts 210°
2026-05-07 21:59 38.46222 -9.70310 36965 ft 380 kts 210°
2026-05-07 22:00 38.41629 -9.73650 36978 ft 380 kts 210°
2026-05-07 22:00 38.37030 -9.76984 36977 ft 380 kts 210°
2026-05-07 22:01 38.32433 -9.80309 36978 ft 380 kts 210°
2026-05-07 22:01 38.27834 -9.83636 36994 ft 380 kts 209°
2026-05-07 22:02 38.23232 -9.86960 36978 ft 381 kts 209°
2026-05-07 22:02 38.18619 -9.90284 36974 ft 381 kts 209°
2026-05-07 22:03 38.13996 -9.93614 36965 ft 382 kts 209°
2026-05-07 22:03 38.09371 -9.96941 36971 ft 382 kts 209°
2026-05-07 22:04 38.04744 -10.00262 36972 ft 382 kts 209°
2026-05-07 22:04 38.00112 -10.03573 36971 ft 382 kts 209°
2026-05-07 22:05 37.95474 -10.06884 36972 ft 382 kts 209°
2026-05-07 22:05 37.90845 -10.10198 36975 ft 382 kts 209°
2026-05-07 22:06 37.86209 -10.13507 36973 ft 382 kts 209°
2026-05-07 22:06 37.81575 -10.16812 36975 ft 382 kts 209°
2026-05-07 22:07 37.76941 -10.20115 36977 ft 382 kts 209°
2026-05-07 22:07 37.72298 -10.23415 36992 ft 383 kts 209°
2026-05-07 22:08 37.67651 -10.26717 36982 ft 383 kts 209°
2026-05-07 22:08 37.63003 -10.30014 36984 ft 384 kts 209°
2026-05-07 22:09 37.58340 -10.33305 36982 ft 384 kts 209°
2026-05-07 22:09 37.53676 -10.36597 36981 ft 384 kts 209°
2026-05-07 22:10 37.49014 -10.39890 36965 ft 384 kts 209°
2026-05-07 22:10 37.44385 -10.43151 36971 ft 384 kts 209°
2026-05-07 22:11 37.39724 -10.46425 36979 ft 384 kts 209°
2026-05-07 22:11 37.35063 -10.49697 36982 ft 383 kts 209°
2026-05-07 22:12 37.30410 -10.52967 36983 ft 383 kts 209°
2026-05-07 22:12 37.25748 -10.56229 36983 ft 383 kts 209°
2026-05-07 22:13 37.21086 -10.59482 36991 ft 384 kts 209°
2026-05-07 22:13 37.17202 -10.62195 36974 ft 385 kts 209°
2026-05-07 22:14 37.12516 -10.65471 36972 ft 386 kts 209°
2026-05-07 22:14 37.07818 -10.68738 36972 ft 387 kts 209°
2026-05-07 22:15 37.03109 -10.72009 36975 ft 387 kts 209°
2026-05-07 22:15 36.98399 -10.75284 36956 ft 387 kts 209°
2026-05-07 22:16 36.93691 -10.78550 36973 ft 387 kts 209°
2026-05-07 22:16 36.88979 -10.81816 36976 ft 387 kts 209°
2026-05-07 22:17 36.84274 -10.85078 36981 ft 387 kts 209°
2026-05-07 22:17 36.79563 -10.88329 36984 ft 387 kts 209°
2026-05-07 22:18 36.72496 -10.93195 36972 ft 387 kts 209°
2026-05-07 22:19 36.67782 -10.96441 36993 ft 387 kts 209°
2026-05-07 22:19 36.63055 -10.99686 36976 ft 389 kts 209°
2026-05-07 22:20 36.58319 -11.02937 36973 ft 389 kts 209°
2026-05-07 22:20 36.53573 -11.06194 36973 ft 390 kts 209°
2026-05-07 22:21 36.48821 -11.09451 36976 ft 390 kts 209°
2026-05-07 22:21 36.44058 -11.12705 36974 ft 391 kts 210°
2026-05-07 22:22 36.39324 -11.15934 36978 ft 391 kts 210°
2026-05-07 22:22 36.34559 -11.19170 36982 ft 391 kts 210°
2026-05-07 22:23 36.29792 -11.22411 36983 ft 391 kts 210°
2026-05-07 22:23 36.25023 -11.25653 36987 ft 391 kts 210°
2026-05-07 22:24 36.20257 -11.28891 36964 ft 391 kts 210°
2026-05-07 22:24 36.15491 -11.32116 37016 ft 390 kts 210°
2026-05-07 22:25 36.10718 -11.35340 37000 ft 391 kts 210°
2026-05-07 22:25 36.05938 -11.38569 36992 ft 392 kts 210°
2026-05-07 22:26 36.01148 -11.41805 36991 ft 392 kts 210°
2026-05-07 22:26 35.96385 -11.45083 36986 ft 391 kts 215°
2026-05-07 22:27 35.91952 -11.48976 36977 ft 391 kts 216°
2026-05-07 22:27 35.87530 -11.52868 36987 ft 390 kts 216°
2026-05-07 22:28 35.83103 -11.56746 36993 ft 390 kts 216°
2026-05-07 22:28 35.78677 -11.60621 36993 ft 390 kts 216°
2026-05-07 22:29 35.74257 -11.64493 36993 ft 390 kts 216°
2026-05-07 22:29 35.69837 -11.68358 36992 ft 390 kts 216°
2026-05-07 22:30 35.65413 -11.72217 36984 ft 391 kts 217°
2026-05-07 22:30 35.60969 -11.76088 36974 ft 393 kts 217°
2026-05-07 22:31 35.56505 -11.79977 36977 ft 394 kts 217°
2026-05-07 22:31 35.52023 -11.83878 36981 ft 396 kts 217°
2026-05-07 22:32 35.47522 -11.87782 36987 ft 396 kts 217°
2026-05-07 22:32 35.43010 -11.91687 36993 ft 397 kts 217°
2026-05-07 22:33 35.38496 -11.95587 36995 ft 397 kts 217°
2026-05-07 22:33 35.33989 -11.99490 36997 ft 397 kts 217°
2026-05-07 22:34 35.29472 -12.03389 37001 ft 397 kts 217°
2026-05-07 22:34 35.24952 -12.07294 37003 ft 398 kts 217°
2026-05-07 22:35 35.20425 -12.11198 36998 ft 399 kts 217°
2026-05-07 22:35 35.15884 -12.15097 36994 ft 399 kts 217°
2026-05-07 22:36 35.11368 -12.18964 36980 ft 399 kts 218°
2026-05-07 22:36 35.06827 -12.22858 36991 ft 399 kts 218°
2026-05-07 22:37 35.02284 -12.26748 36997 ft 399 kts 218°
2026-05-07 22:37 34.97740 -12.30632 36999 ft 399 kts 218°
2026-05-07 22:38 34.93195 -12.34510 36999 ft 399 kts 218°
2026-05-07 22:38 34.88651 -12.38385 36999 ft 399 kts 218°
2026-05-07 22:39 34.84109 -12.42253 36987 ft 398 kts 218°
2026-05-07 22:39 34.79564 -12.46116 36990 ft 399 kts 218°
2026-05-07 22:40 34.75014 -12.49972 36991 ft 399 kts 218°
2026-05-07 22:40 34.70455 -12.53827 36992 ft 399 kts 218°
2026-05-07 22:41 34.65902 -12.57685 36992 ft 399 kts 218°
2026-05-07 22:41 34.61350 -12.61542 36992 ft 399 kts 218°
2026-05-07 22:42 34.56795 -12.65395 36974 ft 399 kts 218°
2026-05-07 22:42 34.52245 -12.69233 36993 ft 398 kts 218°
2026-05-07 22:43 34.47697 -12.73057 36998 ft 398 kts 218°
2026-05-07 22:43 34.43146 -12.76871 36998 ft 397 kts 218°
2026-05-07 22:44 34.38634 -12.80659 36993 ft 398 kts 218°
2026-05-07 22:44 34.34080 -12.84490 36988 ft 399 kts 218°
2026-05-07 22:45 34.29515 -12.88313 36961 ft 400 kts 218°
2026-05-07 22:45 34.24938 -12.92139 36977 ft 400 kts 219°
2026-05-07 22:46 34.20378 -12.95978 36983 ft 400 kts 219°
2026-05-07 22:46 34.15825 -12.99828 36988 ft 400 kts 219°
2026-05-07 22:47 34.11262 -13.03671 36998 ft 400 kts 219°
2026-05-07 22:47 34.06700 -13.07511 36996 ft 400 kts 219°
2026-05-07 22:48 34.02138 -13.11351 36959 ft 400 kts 219°
2026-05-07 22:48 33.97569 -13.15189 36975 ft 401 kts 219°
2026-05-07 22:49 33.92984 -13.19029 36984 ft 403 kts 219°
2026-05-07 22:49 33.88366 -13.22874 36988 ft 404 kts 219°
2026-05-07 22:50 33.83735 -13.26738 36989 ft 405 kts 219°
2026-05-07 22:50 33.79104 -13.30616 36996 ft 406 kts 219°
2026-05-07 22:51 33.74466 -13.34489 36956 ft 406 kts 219°
2026-05-07 22:51 33.69820 -13.38341 36992 ft 405 kts 219°
2026-05-07 22:52 33.65181 -13.42189 37007 ft 405 kts 220°
2026-05-07 22:52 33.60580 -13.46011 37014 ft 405 kts 220°
2026-05-07 22:53 33.55941 -13.49851 37039 ft 405 kts 220°
2026-05-07 22:53 33.51308 -13.53685 37030 ft 405 kts 220°
2026-05-07 22:54 33.46655 -13.57532 37027 ft 406 kts 220°
2026-05-07 22:54 33.42002 -13.61369 37005 ft 406 kts 221°
2026-05-07 22:55 33.37360 -13.65196 37025 ft 405 kts 221°
2026-05-07 22:55 33.32719 -13.69016 37024 ft 405 kts 221°
2026-05-07 22:56 33.28083 -13.72831 37033 ft 404 kts 221°
2026-05-07 22:56 33.23453 -13.76638 37034 ft 404 kts 221°
2026-05-07 22:57 33.18823 -13.80428 37030 ft 404 kts 220°
2026-05-07 22:57 33.14189 -13.84211 37009 ft 403 kts 221°
2026-05-07 22:58 33.09559 -13.87979 37006 ft 402 kts 221°
2026-05-07 22:58 33.04934 -13.91734 37014 ft 402 kts 221°
2026-05-07 22:59 33.00312 -13.95479 37024 ft 402 kts 221°
2026-05-07 22:59 32.95694 -13.99219 37024 ft 401 kts 221°
2026-05-07 23:00 32.91069 -14.02947 37022 ft 401 kts 221°
2026-05-07 23:00 32.86451 -14.06671 36996 ft 401 kts 221°
2026-05-07 23:01 32.82623 -14.09768 37009 ft 400 kts 221°
2026-05-07 23:01 32.78018 -14.13479 37016 ft 400 kts 221°
2026-05-07 23:02 32.73407 -14.17176 37018 ft 400 kts 221°
2026-05-07 23:02 32.68801 -14.20872 37020 ft 400 kts 221°
2026-05-07 23:03 32.64192 -14.24567 37017 ft 400 kts 221°
2026-05-07 23:03 32.59592 -14.28259 37022 ft 399 kts 221°
2026-05-07 23:04 32.54990 -14.31954 37022 ft 400 kts 221°
2026-05-07 23:04 32.50377 -14.35637 37028 ft 400 kts 221°
2026-05-07 23:05 32.45761 -14.39308 37032 ft 400 kts 221°
2026-05-07 23:05 32.41145 -14.42983 37034 ft 400 kts 221°
2026-05-07 23:06 32.36531 -14.46667 37035 ft 400 kts 221°
2026-05-07 23:06 32.31909 -14.50346 37038 ft 400 kts 221°
2026-05-07 23:07 32.27286 -14.54012 37014 ft 400 kts 221°
2026-05-07 23:07 32.22671 -14.57672 37021 ft 399 kts 222°
2026-05-07 23:08 32.18064 -14.61321 37029 ft 399 kts 222°
2026-05-07 23:08 32.13451 -14.64964 37033 ft 399 kts 222°
2026-05-07 23:09 32.08845 -14.68608 37029 ft 399 kts 222°
2026-05-07 23:09 32.04231 -14.72255 37044 ft 399 kts 222°
2026-05-07 23:10 31.99619 -14.75889 37010 ft 398 kts 222°
2026-05-07 23:10 31.95043 -14.79483 37027 ft 398 kts 222°
2026-05-07 23:11 31.90441 -14.83096 37032 ft 397 kts 222°
2026-05-07 23:11 31.85847 -14.86710 37039 ft 397 kts 223°
2026-05-07 23:12 31.81259 -14.90317 37045 ft 397 kts 223°
2026-05-07 23:12 31.76667 -14.93917 37041 ft 396 kts 223°
2026-05-07 23:13 31.72074 -14.97509 36970 ft 396 kts 223°
2026-05-07 23:13 31.67488 -15.01093 37037 ft 396 kts 224°
2026-05-07 23:14 31.62901 -15.04664 37046 ft 395 kts 223°
2026-05-07 23:14 31.58319 -15.08233 37050 ft 395 kts 224°
2026-05-07 23:15 31.53744 -15.11795 37052 ft 395 kts 224°
2026-05-07 23:15 31.49166 -15.15360 37053 ft 395 kts 224°
2026-05-07 23:16 31.44588 -15.18923 37055 ft 395 kts 223°
2026-05-07 23:16 31.40018 -15.22463 37012 ft 393 kts 224°
2026-05-07 23:17 31.35465 -15.25986 37039 ft 392 kts 224°
2026-05-07 23:17 31.30922 -15.29501 37047 ft 391 kts 224°
2026-05-07 23:18 31.26259 -15.32792 37050 ft 397 kts 220°
2026-05-07 23:18 31.21377 -15.35838 37052 ft 398 kts 219°
2026-05-07 23:19 31.16474 -15.38852 37050 ft 398 kts 219°
2026-05-07 23:19 31.11612 -15.41920 37014 ft 396 kts 220°
2026-05-07 23:20 31.06780 -15.45006 37040 ft 396 kts 220°
2026-05-07 23:20 31.01954 -15.48081 37047 ft 395 kts 220°
2026-05-07 23:21 30.97133 -15.51147 37050 ft 394 kts 220°
2026-05-07 23:21 30.92315 -15.54200 37050 ft 394 kts 220°
2026-05-07 23:22 30.87496 -15.57245 37056 ft 394 kts 220°
2026-05-07 23:22 30.82684 -15.60286 37026 ft 393 kts 220°
2026-05-07 23:23 30.77864 -15.63337 37047 ft 394 kts 220°
2026-05-07 23:23 30.73045 -15.66387 37052 ft 395 kts 220°
2026-05-07 23:24 30.68218 -15.69437 37048 ft 395 kts 220°
2026-05-07 23:24 30.63376 -15.72470 37051 ft 395 kts 220°
2026-05-07 23:25 30.58534 -15.75506 37049 ft 395 kts 220°
2026-05-07 23:25 30.53702 -15.78548 37002 ft 395 kts 220°
2026-05-07 23:26 30.48855 -15.81597 37055 ft 397 kts 220°
2026-05-07 23:26 30.43993 -15.84643 37062 ft 397 kts 220°
2026-05-07 23:27 30.36719 -15.89208 37065 ft 396 kts 220°
2026-05-07 23:27 30.31864 -15.92243 37068 ft 397 kts 219°
2026-05-07 23:28 30.27006 -15.95269 37073 ft 397 kts 219°
2026-05-07 23:28 30.22180 -15.98274 37043 ft 397 kts 219°
2026-05-07 23:29 30.17316 -16.01305 37040 ft 397 kts 219°
2026-05-07 23:29 30.12449 -16.04338 37047 ft 398 kts 219°
2026-05-07 23:30 30.07565 -16.07368 37051 ft 399 kts 219°
2026-05-07 23:30 30.02678 -16.10404 37058 ft 399 kts 219°
2026-05-07 23:31 29.97789 -16.13430 37062 ft 399 kts 219°
2026-05-07 23:31 29.92898 -16.16456 37018 ft 399 kts 219°
2026-05-07 23:32 29.88010 -16.19484 37031 ft 399 kts 219°
2026-05-07 23:32 29.83106 -16.22509 37042 ft 400 kts 219°
2026-05-07 23:33 29.78200 -16.25527 37048 ft 400 kts 219°
2026-05-07 23:33 29.73288 -16.28557 37057 ft 400 kts 219°
2026-05-07 23:34 29.68381 -16.31586 37064 ft 401 kts 219°
2026-05-07 23:34 29.63465 -16.34611 37067 ft 401 kts 219°
2026-05-07 23:35 29.58647 -16.37768 37049 ft 391 kts 226°
2026-05-07 23:35 29.54494 -16.41657 37051 ft 388 kts 229°
2026-05-07 23:36 29.50326 -16.45600 37051 ft 389 kts 229°
2026-05-07 23:36 29.46148 -16.49539 37059 ft 389 kts 229°
2026-05-07 23:37 29.41965 -16.53473 37062 ft 389 kts 229°
2026-05-07 23:37 29.37780 -16.57410 37062 ft 389 kts 229°
2026-05-07 23:38 29.33596 -16.61343 37024 ft 389 kts 229°
2026-05-07 23:38 29.29402 -16.65282 37049 ft 391 kts 228°
2026-05-07 23:39 29.25190 -16.69233 37065 ft 391 kts 228°
2026-05-07 23:39 29.20963 -16.73195 36800 ft 394 kts 228°
2026-05-07 23:40 29.18844 -16.75179 36542 ft 394 kts 228°
2026-05-07 23:40 29.16723 -16.77161 36137 ft 392 kts 228°
2026-05-07 23:40 29.14615 -16.79130 35568 ft 391 kts 227°
2026-05-07 23:40 29.12509 -16.81097 34962 ft 391 kts 227°
2026-05-07 23:41 29.10397 -16.83072 34218 ft 395 kts 227°
2026-05-07 23:41 29.08260 -16.85072 33445 ft 398 kts 226°
2026-05-07 23:41 29.06136 -16.87047 33025 ft 391 kts 226°
2026-05-07 23:41 29.04033 -16.89000 32529 ft 387 kts 226°
2026-05-07 23:42 29.01958 -16.90930 32004 ft 383 kts 226°
2026-05-07 23:42 28.99903 -16.92842 31544 ft 378 kts 226°
2026-05-07 23:42 28.97875 -16.94731 31084 ft 375 kts 226°
2026-05-07 23:42 28.95863 -16.96604 30604 ft 371 kts 226°
2026-05-07 23:43 28.93871 -16.98458 30150 ft 368 kts 226°
2026-05-07 23:43 28.91897 -17.00292 29641 ft 364 kts 226°
2026-05-07 23:43 28.89944 -17.02104 29179 ft 359 kts 226°
2026-05-07 23:43 28.88021 -17.03887 28748 ft 354 kts 226°
2026-05-07 23:44 28.86123 -17.05649 28300 ft 349 kts 226°
2026-05-07 23:44 28.84254 -17.07387 27879 ft 344 kts 226°
2026-05-07 23:44 28.82406 -17.09104 27474 ft 340 kts 226°
2026-05-07 23:44 28.80582 -17.10792 27048 ft 336 kts 226°
2026-05-07 23:45 28.78776 -17.12463 26647 ft 333 kts 226°
2026-05-07 23:45 28.76986 -17.14121 26258 ft 331 kts 226°
2026-05-07 23:45 28.75202 -17.15775 25867 ft 330 kts 226°
2026-05-07 23:45 28.73426 -17.17419 25493 ft 328 kts 226°
2026-05-07 23:46 28.71656 -17.19055 25123 ft 327 kts 226°
2026-05-07 23:46 28.69892 -17.20688 24729 ft 326 kts 226°
2026-05-07 23:46 28.68132 -17.22318 24369 ft 326 kts 226°
2026-05-07 23:46 28.66371 -17.23948 23998 ft 325 kts 226°
2026-05-07 23:47 28.64614 -17.25568 23614 ft 324 kts 226°
2026-05-07 23:47 28.62886 -17.27158 23191 ft 323 kts 225°
2026-05-07 23:47 28.61138 -17.28766 22810 ft 323 kts 225°
2026-05-07 23:47 28.59393 -17.30371 22423 ft 322 kts 225°
2026-05-07 23:48 28.57651 -17.31976 22037 ft 322 kts 225°
2026-05-07 23:48 28.55911 -17.33578 21643 ft 321 kts 225°
2026-05-07 23:48 28.54174 -17.35176 21254 ft 321 kts 224°
2026-05-07 23:48 28.53003 -17.36252 20992 ft 321 kts 224°
2026-05-07 23:49 28.51292 -17.37826 20593 ft 320 kts 224°
2026-05-07 23:49 28.49561 -17.39417 20194 ft 320 kts 224°
2026-05-07 23:49 28.47676 -17.40785 19784 ft 327 kts 207°
2026-05-07 23:49 28.45444 -17.41393 19347 ft 336 kts 187°
2026-05-07 23:50 28.43104 -17.41058 18902 ft 346 kts 165°
2026-05-07 23:50 28.40956 -17.39770 18382 ft 356 kts 143°
2026-05-07 23:50 28.39319 -17.37644 17801 ft 362 kts 123°
2026-05-07 23:50 28.38035 -17.35183 17285 ft 362 kts 122°
2026-05-07 23:51 28.36763 -17.32716 16814 ft 362 kts 121°
2026-05-07 23:51 28.35512 -17.30285 16657 ft 351 kts 121°
2026-05-07 23:51 28.34289 -17.27913 16358 ft 346 kts 121°
2026-05-07 23:51 28.33065 -17.25543 15859 ft 348 kts 121°
2026-05-07 23:52 28.31844 -17.23191 15459 ft 346 kts 121°
2026-05-07 23:52 28.30594 -17.20793 14561 ft 361 kts 121°
2026-05-07 23:52 28.29290 -17.18294 13621 ft 375 kts 121°
2026-05-07 23:52 28.27949 -17.15728 12913 ft 379 kts 121°
2026-05-07 23:53 28.26610 -17.13162 12383 ft 377 kts 121°
2026-05-07 23:53 28.25222 -17.10621 11503 ft 385 kts 123°
2026-05-07 23:53 28.23696 -17.08052 10841 ft 396 kts 125°
2026-05-07 23:53 28.22130 -17.05540 10630 ft 382 kts 126°
2026-05-07 23:54 28.20612 -17.03141 10523 ft 367 kts 126°
2026-05-07 23:54 28.19155 -17.00833 10416 ft 352 kts 126°
2026-05-07 23:54 28.17768 -16.98654 10278 ft 330 kts 130°
2026-05-07 23:54 28.16128 -16.96977 10155 ft 308 kts 149°
2026-05-07 23:55 28.14263 -16.95976 10027 ft 288 kts 160°
2026-05-07 23:55 28.12431 -16.95158 9672 ft 279 kts 161°
2026-05-07 23:55 28.10660 -16.94367 9212 ft 275 kts 161°
2026-05-07 23:55 28.08891 -16.93578 8760 ft 272 kts 161°
2026-05-07 23:56 28.07143 -16.92797 8307 ft 268 kts 161°
2026-05-07 23:56 28.05417 -16.92028 7864 ft 265 kts 161°
2026-05-07 23:56 28.03712 -16.91270 7421 ft 262 kts 161°
2026-05-07 23:56 28.02029 -16.90520 6984 ft 258 kts 161°
2026-05-07 23:57 28.00337 -16.89760 6335 ft 265 kts 160°
2026-05-07 23:57 27.98673 -16.88892 5634 ft 264 kts 149°
2026-05-07 23:57 27.97295 -16.87551 5164 ft 258 kts 130°
2026-05-07 23:57 27.96364 -16.85844 4945 ft 253 kts 113°
2026-05-07 23:58 27.95914 -16.83964 4736 ft 244 kts 97°
2026-05-07 23:58 27.95936 -16.82078 4444 ft 237 kts 80°
2026-05-07 23:58 27.96386 -16.80320 4152 ft 231 kts 67°
2026-05-07 23:58 27.96974 -16.78649 3847 ft 227 kts 67°
2026-05-07 23:59 27.97551 -16.77003 3553 ft 223 kts 67°
2026-05-07 23:59 27.98118 -16.75386 3283 ft 217 kts 66°
2026-05-07 23:59 27.98655 -16.73860 3101 ft 201 kts 67°
2026-05-07 23:59 27.99162 -16.72399 2685 ft 199 kts 68°
2026-05-08 00:00 27.99659 -16.70961 2404 ft 191 kts 68°
2026-05-08 00:00 28.00134 -16.69599 2188 ft 182 kts 68°
2026-05-08 00:00 28.00587 -16.68290 1946 ft 175 kts 68°
2026-05-08 00:00 28.01022 -16.67043 1719 ft 166 kts 68°
2026-05-08 00:01 28.01438 -16.65862 1502 ft 156 kts 68°
2026-05-08 00:01 28.01823 -16.64766 1296 ft 146 kts 68°
2026-05-08 00:01 28.02185 -16.63731 1120 ft 139 kts 69°
2026-05-08 00:01 28.02536 -16.62719 943 ft 137 kts 68°
2026-05-08 00:02 28.02886 -16.61717 767 ft 138 kts 68°
2026-05-08 00:02 28.03239 -16.60708 594 ft 138 kts 67°
2026-05-08 00:02 28.03594 -16.59692 410 ft 140 kts 66°
2026-05-08 00:02 28.03946 -16.58677 273 ft 138 kts 66°
2026-05-08 00:03 28.04309 -16.57664 210 ft 147 kts 69°
2026-05-08 00:03 28.04684 -16.56598 215 ft 137 kts 69°
2026-05-08 00:03 28.04984 -16.55627 224 ft 131 kts 72°
2026-05-08 00:03 28.05002 -16.55562 223 ft 132 kts 73°